Temp
62 63 64 64 64 64 66 64 66 65 61 61 61 61 61 63 68 70 70 74 75 76 75 75 75 75 75 75 74 74 73 73 73 73 72 72 72 72 71 71 71 71 72
62 62 63 64 64 65 65 65 64 66 62 60 60 60 60 62 67 69 69 70 73 74 75 75 75 75 75 74 74 73 73 72 72 72 72 72 71 71 71 71 71 71 71
63 63 63 63 64 64 65 64 66 66 64 62 57 58 60 60 65 67 67 67 69 72 73 74 75 75 74 74 73 73 72 72 72 71 71 71 71 70 70 70 70 70 70
62 61 62 62 64 64 63 62 62 64 63 62 56 57 57 59 64 65 65 65 65 66 71 73 74 74 74 74 73 72 72 72 71 71 71 70 70 70 70 69 69 70 70
62 61 62 62 64 63 62 61 60 61 60 61 59 56 56 56 60 65 63 62 62 63 63 71 72 73 74 73 73 72 72 71 71 71 70 70 69 69 69 69 69 69 69
63 62 61 62 63 61 61 60 60 60 60 60 62 56 54 55 56 59 57 60 60 60 61 61 61 66 72 73 73 72 72 71 71 70 70 70 69 69 69 68 68 68 68
63 62 62 62 61 61 61 61 60 59 58 59 59 56 56 54 54 55 56 57 58 58 59 59 59 60 64 71 72 72 72 71 71 70 70 69 69 68 68 68 67 67 67
62 62 62 62 62 60 61 60 59 58 58 59 57 55 53 56 56 56 55 57 56 57 58 59 58 58 58 59 64 69 70 71 71 70 69 69 69 68 68 67 67 67 67
62 63 62 63 62 61 61 60 60 60 57 58 59 56 51 50 52 53 54 54 54 54 55 56 57 57 57 57 59 62 67 69 70 69 69 69 68 68 67 67 66 66 66
61 62 62 63 62 62 61 60 61 60 59 56 60 61 58 56 51 49 52 53 53 54 52 53 54 55 55 55 60 62 66 66 67 68 68 68 67 67 66 66 66 66 65
62 62 62 63 63 62 63 61 60 59 59 58 59 55 55 53 53 51 48 50 51 50 50 50 51 52 53 53 54 58 64 65 65 66 66 66 66 66 66 65 65 65 65
60 62 63 63 64 62 62 61 60 59 59 59 59 58 58 56 53 51 47 46 49 49 49 49 50 50 51 52 56 61 64 64 64 64 64 64 64 64 64 64 64 64 63
57 58 61 62 62 62 63 62 60 59 59 58 57 56 57 59 58 54 51 47 48 48 49 48 49 48 52 51 53 59 62 62 62 63 64 63 62 62 62 62 62 62 61
58 58 59 62 63 63 62 62 61 59 58 57 57 59 59 59 58 57 54 50 46 45 45 48 46 47 48 50 53 61 57 62 62 62 61 60 60 60 60 60 59 59 59
55 58 57 59 60 60 61 61 60 59 58 56 57 56 55 56 57 57 56 56 52 45 46 45 46 46 47 49 54 54 55 61 60 60 59 59 59 58 58 58 57 57 57
56 56 57 59 59 59 60 60 59 58 57 56 55 54 53 53 53 53 54 53 52 52 49 48 47 47 48 54 56 54 55 58 59 59 58 57 57 57 57 56 55 56 56
55 55 56 58 58 58 59 58 57 56 55 53 53 53 51 52 51 51 52 53 52 52 48 46 48 49 50 51 51 52 52 51 53 58 58 58 57 56 55 55 55 55 55
54 54 55 56 57 57 57 56 55 55 54 53 52 52 51 53 51 51 51 50 49 50 50 46 45 45 46 47 48 49 52 53 50 55 57 58 57 55 54 55 55 55 53
54 54 55 55 55 55 54 54 54 53 52 52 52 51 51 51 49 49 49 48 48 48 47 46 42 44 45 47 46 47 47 46 50 52 54 55 56 55 55 54 53 53 52
53 53 53 53 54 53 53 53 52 52 52 52 52 52 51 51 49 48 48 46 46 45 45 44 43 43 44 44 43 42 41 39 39 45 47 48 50 52 53 52 52 52 51
52 52 52 52 53 53 52 51 52 51 51 50 50 50 49 51 52 50 47 45 44 44 44 44 42 42 41 41 40 39 39 38 37 36 37 37 38 38 40 43 46 51 50
50 51 51 52 52 53 55 54 52 49 48 48 47 49 51 52 52 52 52 53 49 46 43 42 39 39 35 34 34 34 34 34 34 35 35 36 36 36 37 39 46 50 49
50 50 50 51 51 53 55 53 51 48 47 47 47 48 50 51 48 49 54 53 53 52 48 39 35 34 33 34 33 33 32 32 32 34 33 32 33 34 36 39 48 48 48
47 48 49 50 51 53 54 53 51 46 44 43 43 42 43 42 43 42 40 39 38 39 40 41 36 35 35 35 35 35 33 32 32 33 33 32 32 33 34 35 44 47 47
45 44 45 46 46 46 53 51 45 42 40 39 40 41 42 42 51 49 39 37 37 39 49 49 47 49 49 46 40 34 32 32 31 32 33 33 32 32 32 33 37 45 46
39 42 41 42 49 43 52 50 43 41 37 38 38 41 50 45 50 47 37 36 35 35 37 38 37 43 45 45 46 39 33 32 32 31 35 33 32 32 31 34 34 36 36
MSLP
1015.85 1015.94 1016.13 1016.51 1016.87 1017.12 1017.23 1017.95 1017.80 1018.62 1019.22 1019.48 1019.69 1019.53 1019.58 1019.88 1019.85 1020.10 1020.39 1020.55 1020.59 1020.70 1020.99 1021.17 1021.26 1021.22 1021.24 1021.12 1021.05 1021.16 1021.19 1021.20 1021.18 1021.12 1021.05 1020.96 1020.98 1020.86 1020.84 1020.75 1020.63 1020.78 1020.58
1015.41 1015.85 1015.88 1016.35 1016.77 1017.23 1017.45 1017.92 1018.05 1018.01 1019.37 1019.77 1020.30 1020.10 1020.06 1020.14 1020.32 1020.39 1020.64 1020.90 1021.01 1021.20 1021.37 1021.49 1021.66 1021.80 1021.70 1021.73 1021.71 1021.75 1021.86 1021.92 1021.84 1021.76 1021.78 1021.74 1021.74 1021.72 1021.58 1021.48 1021.33 1021.43 1021.21
1015.22 1015.42 1015.85 1015.98 1016.47 1016.74 1017.60 1017.99 1018.24 1018.29 1019.21 1019.97 1020.74 1020.64 1020.44 1020.57 1020.76 1020.87 1020.98 1021.26 1021.40 1021.61 1021.90 1021.78 1022.00 1022.08 1022.24 1022.29 1022.32 1022.42 1022.40 1022.59 1022.49 1022.47 1022.42 1022.48 1022.46 1022.39 1022.29 1022.23 1022.15 1022.14 1021.97
1015.64 1015.45 1015.97 1016.19 1016.17 1016.49 1017.40 1017.87 1018.41 1018.88 1019.37 1020.15 1020.82 1021.07 1021.04 1020.94 1021.08 1021.38 1021.46 1021.73 1021.96 1022.10 1022.27 1022.21 1022.21 1022.51 1022.69 1022.80 1022.82 1022.95 1022.99 1023.05 1023.10 1023.10 1023.11 1023.09 1023.12 1023.06 1022.97 1022.88 1022.86 1022.82 1022.78
1015.54 1015.73 1015.95 1016.07 1016.57 1017.48 1017.34 1018.08 1018.42 1018.89 1019.67 1020.25 1021.00 1021.54 1021.72 1021.62 1021.62 1021.84 1022.18 1022.32 1022.50 1022.67 1022.78 1022.63 1022.64 1022.88 1022.95 1023.14 1023.23 1023.40 1023.49 1023.61 1023.61 1023.63 1023.68 1023.72 1023.69 1023.74 1023.62 1023.54 1023.50 1023.39 1023.38
1015.31 1015.79 1016.03 1016.16 1016.60 1017.57 1017.83 1018.18 1018.50 1018.79 1019.80 1020.25 1021.08 1022.10 1022.31 1022.34 1022.31 1022.53 1022.82 1022.90 1023.16 1023.25 1023.27 1023.39 1023.34 1023.32 1023.37 1023.49 1023.59 1023.75 1023.91 1024.02 1024.08 1024.14 1024.08 1024.21 1024.17 1024.27 1024.16 1024.18 1024.20 1024.08 1023.99
1015.01 1015.58 1015.82 1016.34 1016.68 1017.14 1017.59 1018.02 1018.62 1019.15 1020.05 1020.26 1021.38 1022.13 1022.79 1022.90 1023.07 1023.30 1023.28 1023.42 1023.57 1023.75 1023.76 1023.90 1023.93 1023.95 1023.91 1023.86 1023.94 1023.98 1024.15 1024.32 1024.44 1024.47 1024.51 1024.58 1024.61 1024.64 1024.68 1024.66 1024.64 1024.56 1024.46
1014.81 1015.10 1015.24 1015.73 1016.94 1017.21 1017.65 1017.98 1018.42 1019.13 1019.97 1020.02 1020.92 1021.70 1022.82 1023.43 1023.50 1023.68 1023.70 1023.72 1023.94 1024.02 1024.13 1024.23 1024.35 1024.44 1024.54 1024.57 1024.46 1024.47 1024.46 1024.60 1024.72 1024.79 1024.78 1024.84 1024.82 1024.96 1025.08 1025.10 1025.10 1024.98 1024.85
1013.76 1014.42 1014.89 1015.52 1016.26 1016.97 1017.49 1017.74 1017.84 1018.11 1019.26 1020.18 1020.20 1020.77 1022.11 1022.78 1023.43 1023.98 1024.02 1024.07 1024.25 1024.40 1024.53 1024.55 1024.61 1024.73 1024.86 1024.91 1024.96 1024.90 1024.86 1024.87 1025.02 1024.97 1025.11 1025.10 1025.12 1025.26 1025.31 1025.34 1025.39 1025.27 1025.13
1014.03 1014.59 1014.97 1015.27 1015.91 1016.59 1017.04 1017.52 1018.02 1018.17 1018.60 1019.55 1020.44 1020.39 1020.72 1021.13 1022.68 1024.11 1024.32 1024.42 1024.49 1024.69 1024.79 1024.86 1024.89 1025.01 1025.11 1025.18 1025.17 1025.13 1025.13 1025.16 1025.28 1025.26 1025.28 1025.38 1025.37 1025.38 1025.40 1025.48 1025.49 1025.37 1025.30
1014.10 1014.43 1014.59 1014.99 1015.78 1016.34 1016.89 1017.33 1017.86 1017.87 1018.20 1019.16 1019.74 1020.37 1020.68 1021.06 1021.63 1022.82 1024.13 1024.63 1024.74 1024.78 1025.06 1025.03 1025.09 1025.17 1025.21 1025.34 1025.34 1025.39 1025.33 1025.35 1025.46 1025.54 1025.56 1025.55 1025.48 1025.50 1025.52 1025.57 1025.64 1025.63 1025.42
1013.76 1013.90 1014.16 1014.62 1015.13 1015.76 1016.18 1016.72 1017.25 1017.65 1018.25 1018.74 1019.22 1019.86 1019.83 1020.46 1021.40 1021.98 1023.40 1024.28 1024.63 1024.92 1024.99 1025.13 1025.16 1025.22 1025.38 1025.35 1025.28 1025.42 1025.31 1025.30 1025.49 1025.61 1025.75 1025.70 1025.67 1025.79 1025.87 1025.82 1025.85 1025.78 1025.68
1014.03 1014.02 1013.98 1014.22 1014.57 1015.00 1015.46 1016.04 1016.63 1017.23 1017.72 1018.49 1019.14 1019.65 1019.71 1019.42 1020.41 1021.52 1022.43 1023.76 1024.35 1024.87 1025.09 1025.11 1025.19 1025.41 1025.31 1025.28 1025.34 1025.26 1025.26 1025.34 1025.39 1025.62 1025.75 1025.87 1026.05 1026.20 1026.12 1026.11 1026.10 1026.08 1026.02
1013.64 1014.01 1014.09 1014.06 1014.09 1014.39 1014.89 1015.40 1016.06 1016.82 1017.36 1018.21 1018.79 1019.54 1020.01 1019.55 1019.96 1020.58 1021.59 1022.71 1024.21 1024.69 1025.06 1025.11 1025.35 1025.30 1025.25 1025.30 1025.35 1025.22 1025.23 1025.32 1025.43 1025.66 1025.90 1026.06 1026.21 1026.39 1026.36 1026.29 1026.41 1026.24 1026.19
1013.52 1013.66 1013.82 1013.95 1013.99 1014.13 1014.60 1015.02 1015.61 1016.39 1017.28 1018.07 1019.01 1019.78 1020.26 1019.91 1019.82 1020.27 1020.94 1021.82 1022.59 1024.19 1024.66 1024.99 1025.31 1025.34 1025.29 1025.35 1025.29 1025.27 1025.46 1025.46 1025.62 1025.90 1026.13 1026.21 1026.21 1026.45 1026.55 1026.54 1026.58 1026.62 1026.45
1013.42 1013.60 1013.61 1013.69 1013.77 1014.05 1014.50 1014.98 1015.60 1016.35 1016.89 1018.22 1018.99 1019.65 1020.19 1020.70 1020.34 1020.86 1021.30 1021.59 1022.08 1022.76 1024.14 1024.80 1025.29 1025.37 1025.54 1025.23 1025.23 1025.46 1025.52 1025.61 1025.81 1025.99 1026.23 1026.41 1026.45 1026.40 1026.60 1026.69 1026.75 1026.89 1026.81
1013.33 1013.44 1013.56 1013.53 1013.67 1014.06 1014.55 1015.11 1015.76 1016.16 1017.08 1018.20 1018.95 1019.67 1020.36 1021.04 1021.27 1021.48 1021.53 1021.89 1022.43 1022.78 1023.94 1025.06 1025.06 1025.00 1025.17 1025.33 1025.62 1025.82 1025.89 1025.95 1026.19 1026.24 1026.25 1026.25 1026.38 1026.66 1026.80 1026.88 1026.79 1026.81 1026.70
1013.63 1013.56 1013.41 1013.33 1013.66 1014.09 1014.82 1015.32 1015.91 1016.79 1017.66 1018.52 1019.21 1019.53 1020.43 1021.43 1021.47 1021.60 1022.25 1022.62 1023.13 1023.41 1023.62 1024.41 1025.09 1025.10 1025.28 1025.67 1025.96 1026.20 1026.19 1026.35 1026.58 1026.48 1026.23 1026.24 1026.41 1026.65 1026.75 1026.82 1026.62 1026.57 1026.72
1013.97 1013.88 1013.78 1013.87 1014.17 1014.65 1015.23 1015.81 1016.48 1017.25 1018.20 1018.78 1019.34 1020.13 1020.95 1021.46 1022.06 1022.08 1022.49 1023.26 1023.52 1023.66 1023.96 1024.43 1025.15 1025.51 1025.73 1025.86 1026.28 1026.54 1026.86 1026.81 1026.75 1026.75 1026.42 1026.42 1026.51 1026.60 1026.56 1026.80 1026.69 1026.75 1026.71
1014.42 1014.48 1014.59 1014.65 1014.79 1015.28 1015.78 1016.35 1017.10 1017.87 1018.62 1019.39 1019.87 1020.53 1021.08 1021.30 1021.73 1022.26 1022.96 1023.52 1023.68 1024.10 1024.23 1024.57 1025.21 1025.60 1025.84 1026.24 1026.46 1026.90 1027.42 1027.57 1027.59 1027.42 1027.21 1027.15 1026.95 1026.88 1026.71 1026.88 1026.95 1026.86 1026.82
1015.16 1015.21 1015.28 1015.48 1015.71 1016.17 1016.76 1017.26 1017.91 1018.59 1019.26 1019.83 1020.46 1020.91 1021.21 1021.55 1022.16 1022.61 1023.27 1023.59 1023.83 1024.21 1024.58 1025.07 1025.60 1026.03 1026.46 1026.76 1026.96 1027.27 1027.48 1027.88 1028.12 1028.05 1028.00 1028.09 1027.70 1027.85 1027.64 1027.32 1027.08 1026.80 1026.78
1015.97 1016.02 1016.15 1016.26 1016.49 1016.96 1017.48 1018.03 1018.58 1019.25 1019.86 1020.33 1020.86 1021.67 1021.91 1022.04 1022.42 1022.91 1023.25 1023.57 1023.76 1024.18 1024.72 1025.28 1026.04 1026.53 1027.05 1027.23 1027.37 1027.51 1027.82 1028.17 1028.49 1028.42 1028.32 1028.30 1028.19 1028.16 1027.97 1027.60 1027.02 1026.56 1026.69
1016.74 1016.90 1017.02 1017.20 1017.58 1018.02 1018.44 1018.96 1019.49 1020.15 1020.80 1021.43 1021.83 1022.38 1022.61 1022.81 1023.20 1023.43 1023.61 1023.94 1024.04 1024.29 1024.69 1025.40 1026.46 1026.97 1027.26 1027.48 1027.56 1027.80 1027.98 1028.11 1028.56 1028.62 1028.42 1028.44 1028.44 1028.29 1028.00 1027.51 1026.80 1026.69 1026.73
1017.72 1017.82 1018.02 1018.19 1018.42 1018.90 1019.23 1019.72 1020.32 1021.00 1021.75 1022.24 1022.73 1023.07 1023.40 1023.80 1024.20 1024.45 1024.67 1025.04 1025.40 1025.85 1025.83 1025.99 1026.62 1027.22 1027.24 1027.73 1027.73 1027.89 1028.16 1028.30 1028.72 1028.67 1028.51 1028.54 1028.41 1028.21 1027.96 1027.61 1027.22 1026.84 1026.85
1018.72 1019.00 1019.18 1019.26 1019.55 1019.99 1020.31 1020.74 1021.19 1022.06 1022.78 1023.28 1023.59 1023.79 1024.00 1024.22 1024.32 1024.63 1025.08 1025.54 1025.91 1026.12 1025.92 1026.13 1026.37 1026.41 1026.58 1027.08 1027.42 1028.00 1028.34 1028.38 1028.73 1028.52 1028.41 1028.50 1028.36 1028.13 1027.98 1027.66 1027.20 1026.88 1026.91
1019.71 1019.76 1020.13 1020.37 1020.65 1020.85 1021.05 1021.32 1021.75 1022.36 1023.13 1023.72 1024.12 1024.28 1024.10 1024.53 1024.43 1024.85 1025.33 1025.76 1026.26 1026.64 1026.66 1026.80 1027.09 1026.78 1026.71 1026.84 1027.13 1027.50 1028.06 1028.27 1028.34 1028.31 1028.13 1028.26 1028.16 1028.10 1028.02 1027.74 1027.47 1027.18 1027.03
Wind_Speed
4 3 4 3 3 1 6 5 8 6 5 5 4 5 7 6 6 3 4 10 13 15 17 17 17 19 19 20 21 21 22 22 23 23 24 24 24 24 24 24 24 23 23
6 4 5 5 4 2 1 4 6 9 4 5 4 4 6 6 6 5 3 6 13 14 16 16 17 17 18 19 20 20 20 21 22 22 23 23 23 23 24 23 23 22 22
7 7 5 5 5 5 4 3 5 7 7 6 5 4 4 6 6 5 4 4 6 13 13 14 16 17 17 18 18 19 19 19 20 21 21 22 22 22 23 22 22 21 21
4 3 4 3 4 6 5 5 3 7 7 7 4 3 3 5 6 5 5 5 4 4 8 12 14 15 15 16 17 17 17 18 19 19 20 20 20 21 21 21 21 20 20
4 3 3 5 7 4 5 6 4 4 6 6 6 4 4 4 4 5 6 5 6 5 4 10 12 11 13 14 15 15 15 16 16 17 17 17 18 18 19 20 20 20 19
7 4 3 4 6 6 5 6 9 6 5 5 8 6 4 4 4 4 5 5 5 5 5 5 5 4 11 11 12 13 13 13 13 14 15 15 16 16 17 17 17 18 18
10 7 4 5 4 6 7 9 9 11 5 7 5 6 4 5 5 4 3 3 4 4 5 4 3 3 3 8 8 9 10 9 10 10 11 12 13 14 14 15 15 16 16
11 7 5 3 6 5 9 11 11 8 3 8 5 3 3 2 2 2 3 2 3 2 3 3 4 4 4 3 4 8 6 6 6 7 8 8 10 10 11 12 12 13 14
10 11 12 9 7 5 7 6 8 10 9 5 9 5 4 4 4 1 1 2 2 1 1 2 2 2 3 3 4 5 6 5 3 5 5 6 6 7 8 8 9 10 12
6 7 9 9 9 7 7 8 8 8 9 10 9 1 1 5 4 3 1 1 1 1 0 1 0 1 2 2 2 2 4 6 5 4 4 4 4 4 4 6 7 8 9
7 10 9 8 8 7 8 10 10 11 10 10 9 3 2 3 3 4 3 2 1 1 0 1 2 1 1 0 1 2 2 4 4 4 3 2 2 2 3 5 7 8 9
3 9 11 11 10 11 11 11 12 13 9 9 7 3 4 5 3 4 3 2 3 2 1 0 1 1 2 1 2 4 2 3 2 1 1 2 3 4 5 6 7 9 9
1 3 5 10 8 10 11 10 12 11 12 8 7 3 3 3 4 3 4 2 3 1 1 1 2 1 1 0 2 3 2 2 1 2 4 6 6 5 6 7 8 8 8
4 4 4 5 9 10 11 11 10 9 8 7 10 8 7 3 4 4 5 5 2 1 0 3 1 2 1 1 3 5 3 7 7 8 8 7 6 5 5 6 6 6 6
2 4 5 5 5 8 11 11 8 12 9 6 5 5 3 2 4 4 4 3 5 5 6 2 1 1 1 1 3 4 3 7 8 8 6 5 5 5 6 6 6 5 5
2 4 4 5 7 9 10 12 9 10 10 6 6 8 3 3 5 4 3 3 2 4 3 2 2 2 3 2 3 3 3 4 5 4 4 3 3 4 4 4 4 4 4
2 3 5 6 8 10 10 10 10 9 10 8 7 8 7 4 4 4 4 3 3 3 3 1 1 1 2 3 3 2 3 3 1 5 2 4 3 2 2 1 0 2 4
4 2 3 6 8 10 10 11 12 10 10 10 8 9 8 4 6 7 4 6 4 3 2 3 1 2 3 2 2 3 2 3 2 2 1 3 7 5 3 4 4 2 6
6 7 6 8 8 10 10 10 11 9 9 7 8 9 8 8 6 5 5 3 3 2 2 3 2 1 1 2 3 3 3 3 3 7 5 5 1 4 1 0 4 6 4
7 9 9 8 10 10 9 10 10 10 10 9 9 10 7 7 6 5 4 3 3 2 2 3 2 2 2 2 2 2 2 3 3 4 7 8 7 6 6 4 2 3 3
6 7 10 9 11 10 7 10 10 10 10 11 8 7 6 8 9 7 3 3 4 3 3 3 3 2 2 2 2 1 2 1 2 3 2 3 2 3 4 5 4 2 1
7 8 8 9 10 7 19 18 13 10 9 9 9 6 5 11 10 11 10 7 6 4 3 3 2 2 2 1 1 2 2 2 1 2 2 2 2 2 3 3 6 4 4
8 9 9 9 10 9 17 18 17 9 9 8 8 7 7 7 9 7 13 14 13 13 8 5 4 2 2 1 2 1 1 2 1 2 1 1 2 2 2 4 1 4 4
8 8 9 10 10 10 19 20 20 11 9 9 8 8 9 7 8 8 7 7 6 6 6 6 7 5 5 3 2 2 2 2 1 2 0 0 1 1 2 2 5 1 6
8 8 7 10 11 9 19 20 15 10 10 8 7 7 7 7 11 12 7 7 6 5 11 14 12 11 8 8 7 3 2 2 1 1 2 0 1 2 1 2 3 5 7
5 7 9 7 14 8 18 18 13 8 9 7 6 6 13 8 10 8 6 6 6 3 4 5 4 5 6 7 5 4 4 2 1 2 2 1 1 0 3 2 2 3 3
Wind_Direction
158 179 144 147 83 38 152 154 138 124 112 97 87 117 109 105 92 84 99 103 115 107 101 101 97 93 90 87 84 81 78 77 74 72 71 69 65 62 60 59 58 55 56
152 171 153 131 118 99 139 163 164 135 124 107 95 103 108 106 99 87 87 110 107 109 108 108 101 98 94 91 87 84 80 77 75 73 69 67 66 63 60 57 55 53 54
184 164 176 154 141 125 141 131 156 126 123 109 100 91 105 101 96 78 69 75 97 103 102 102 104 100 97 93 90 87 83 79 76 72 71 68 66 63 60 58 55 52 50
233 175 208 108 127 120 129 143 134 139 135 135 123 99 92 95 89 77 71 69 68 65 108 117 105 105 101 98 93 90 86 82 77 73 69 66 62 61 60 58 57 53 50
197 207 192 139 127 144 135 146 116 119 136 134 113 78 54 84 96 88 74 75 69 65 49 91 104 103 106 101 96 91 85 82 79 75 71 68 65 60 58 55 53 52 50
171 189 181 147 147 149 138 150 133 117 132 128 118 78 51 54 68 95 92 79 77 75 72 66 51 83 109 105 101 95 90 85 80 77 73 67 64 61 58 55 52 50 48
169 166 156 159 149 167 157 151 137 137 147 120 136 89 55 55 57 52 72 102 94 80 80 71 61 49 57 101 108 102 95 89 81 75 71 69 63 59 56 54 50 46 42
173 159 177 154 172 152 162 163 156 140 144 159 144 89 125 64 43 62 66 68 104 95 102 79 72 61 53 42 57 74 73 83 78 68 65 64 64 62 57 52 48 43 39
168 171 173 190 167 162 185 168 159 156 158 173 162 130 136 180 124 19 94 86 139 100 84 93 87 80 67 52 45 40 49 57 58 62 50 49 56 58 55 50 44 38 33
178 177 184 192 183 178 175 170 174 159 143 167 187 104 298 145 153 143 50 76 116 154 175 327 48 37 49 43 31 26 47 64 51 47 40 32 44 53 54 40 33 33 23
171 178 188 190 180 179 190 176 176 169 165 171 184 140 125 78 92 127 146 172 24 39 233 265 262 248 295 297 339 315 13 83 69 54 46 30 29 25 55 28 14 10 6
182 181 185 200 191 191 187 182 182 174 173 176 176 199 181 145 171 129 109 135 164 207 189 219 266 251 244 255 272 259 232 114 98 86 115 79 63 57 39 24 4 357 354
161 256 196 189 193 188 191 189 176 168 168 173 174 169 319 137 129 122 116 122 139 185 222 230 190 207 218 165 249 162 136 132 205 216 163 105 86 63 37 14 0 353 348
163 189 224 225 190 186 190 183 181 166 145 167 167 191 200 151 128 136 138 140 120 123 336 230 232 210 174 180 223 150 123 108 102 116 117 109 89 54 33 24 9 2 355
192 198 212 212 187 162 175 179 173 167 149 138 131 76 23 31 110 113 130 147 145 170 221 216 217 254 177 172 166 129 126 132 127 126 125 112 85 44 31 36 38 26 19
205 195 217 195 169 154 163 172 159 157 139 121 119 104 83 35 56 56 44 100 96 136 136 118 201 187 215 152 144 132 141 114 132 128 120 114 76 54 43 52 36 9 3
160 167 203 187 155 151 146 147 142 128 122 113 102 112 107 133 105 93 78 80 67 72 107 159 116 127 116 130 94 88 101 88 120 188 193 199 166 125 108 103 270 319 331
54 65 118 115 128 131 133 131 125 114 115 124 121 98 98 105 84 71 90 74 74 23 103 121 121 72 76 96 145 122 93 85 67 5 328 267 213 176 184 263 281 88 51
66 56 70 93 102 106 104 104 108 118 113 115 128 128 133 131 124 100 82 116 92 83 82 123 127 85 105 138 106 81 64 40 45 18 30 11 116 193 322 97 110 102 92
67 70 63 76 87 86 86 91 98 102 110 107 111 114 119 106 111 114 109 98 90 103 97 109 121 120 93 54 87 120 100 48 21 14 30 36 46 53 65 63 138 135 96
69 74 81 70 82 84 90 94 99 106 118 114 97 91 90 100 108 98 114 111 117 102 103 94 83 73 71 80 79 45 86 39 37 29 357 7 20 17 11 7 357 9 92
67 80 80 82 80 89 111 111 109 103 91 87 90 82 91 99 101 107 114 126 125 126 112 106 89 106 96 94 85 94 104 63 315 34 15 321 12 344 331 314 302 106 55
70 69 67 81 83 93 105 102 96 86 90 97 102 109 98 88 85 76 90 78 79 81 91 127 119 114 113 119 105 100 125 126 218 301 81 298 9 305 308 329 235 61 348
65 76 80 84 87 92 103 106 100 92 87 81 86 90 94 86 89 98 88 76 70 68 73 90 104 117 107 142 111 139 149 125 7 295 95 229 326 268 309 294 333 349 337
73 68 65 74 82 86 102 104 97 88 84 78 83 87 93 101 112 116 105 103 91 79 104 113 126 126 106 123 121 99 41 78 10 307 336 122 276 284 293 298 282 295 316
79 88 80 71 95 93 106 107 103 106 97 92 68 76 103 107 93 104 118 125 122 129 86 57 36 65 79 114 113 121 155 109 157 349 252 32 284 220 337 277 291 292 290